EHI
1 6 12 11 9 11 7 1 1 2 1 0 0 2 6 13 16 13 17 41 63 53 30 19 11 4 1 0 1 2 2 1 0 0 0 0 0 0 0 0 0 0 0 0 0 0 0 0 0
0 4 9 9 6 6 3 2 3 3 2 1 1 5 14 22 22 17 26 49 57 39 21 15 11 4 0 0 0 1 1 0 0 0 0 0 0 0 0 0 0 0 0 0 0 0 0 0 0
0 2 3 4 2 1 0 2 4 4 1 1 3 13 25 31 28 26 36 48 43 26 15 14 11 4 0 0 0 0 0 1 1 0 0 0 0 0 0 0 0 0 0 0 0 0 0 0 0
1 0 0 0 0 0 0 2 4 3 1 2 8 25 38 35 30 31 33 34 30 21 14 13 10 4 1 0 0 0 1 2 2 1 0 0 0 0 0 0 0 0 0 0 0 0 0 0 0
1 1 1 0 0 0 0 1 3 3 3 4 15 35 44 35 28 26 21 23 25 21 13 9 8 5 1 0 0 0 1 2 3 1 0 0 0 0 0 0 0 0 0 0 0 0 0 0 0
1 0 0 0 0 1 1 1 3 4 4 7 17 34 41 31 21 17 16 21 28 26 16 9 8 6 3 1 0 0 1 2 3 2 0 0 1 1 1 0 0 0 0 0 0 0 0 0 0
0 0 0 0 0 1 2 2 2 3 3 7 15 30 39 30 17 12 15 25 36 35 22 9 5 5 3 1 0 0 1 3 3 1 0 0 1 2 1 0 0 0 0 0 0 0 0 0 0
0 0 0 0 0 1 2 1 1 1 3 8 17 33 45 37 21 16 20 33 48 45 26 8 3 2 1 1 1 1 2 3 2 1 0 0 1 1 1 0 0 0 0 0 0 0 0 0 0
0 0 0 0 0 0 0 0 0 0 4 13 27 44 50 40 27 24 30 44 58 53 31 12 5 2 0 0 1 2 2 2 2 1 0 0 0 0 1 2 1 0 1 1 1 0 0 0 0
0 0 0 0 0 0 0 1 1 1 7 22 41 53 49 37 31 30 37 50 61 58 43 27 17 11 9 7 4 1 1 1 1 1 1 0 0 1 2 3 2 1 2 2 1 0 0 0 0
0 0 0 0 0 0 0 1 2 4 11 26 45 54 48 37 32 31 36 48 61 63 56 47 42 38 33 22 9 3 3 3 4 5 4 3 2 2 3 4 3 2 1 1 0 0 0 0 0
0 0 0 0 0 0 1 1 2 7 14 23 35 46 46 37 31 33 39 51 65 70 67 67 69 70 63 43 20 12 11 8 7 8 7 5 3 3 3 4 4 3 1 1 1 1 1 1 0
0 0 0 0 0 1 1 1 3 9 15 18 24 36 43 38 34 39 50 62 75 79 79 82 85 84 77 61 38 25 20 13 9 8 6 3 2 1 1 3 3 3 4 4 3 2 1 1 0
0 0 0 0 0 2 2 1 3 10 17 18 23 32 38 39 39 48 60 71 79 84 86 87 85 80 74 64 48 30 18 13 10 6 3 1 0 0 0 1 1 2 4 6 5 3 1 0 0
0 0 0 0 0 1 2 3 6 13 19 23 25 29 34 37 41 51 63 70 77 83 84 79 72 68 63 54 39 23 12 9 8 5 1 0 0 0 0 0 0 1 2 3 3 1 0 0 0
0 0 0 0 0 1 3 7 11 15 20 26 27 26 30 34 39 47 56 64 72 76 74 67 60 57 53 42 28 16 10 7 5 3 1 0 0 0 0 1 0 0 0 0 0 0 0 0 0
0 0 0 0 0 0 2 9 15 16 20 26 28 26 28 32 36 43 49 55 62 65 63 58 56 51 43 34 25 16 11 7 2 1 1 0 0 0 0 0 0 0 0 1 1 0 0 0 0
0 0 0 0 0 0 2 8 16 18 19 25 30 28 28 30 34 39 43 47 52 54 52 51 49 44 36 29 22 15 10 6 2 0 1 0 0 0 0 0 0 0 0 1 1 0 0 0 0
0 0 0 0 0 0 2 7 15 17 16 23 31 31 29 29 31 35 38 41 45 46 45 43 39 34 29 23 18 12 7 3 1 0 1 0 0 0 0 0 0 0 0 1 1 0 0 0 0
0 0 0 0 0 0 2 8 14 15 13 18 28 30 29 29 30 32 33 34 37 39 39 38 33 26 21 18 13 8 4 2 1 1 1 0 0 0 0 0 0 0 0 0 0 0 0 0 0
0 0 0 0 0 0 2 8 13 12 10 14 20 24 25 27 29 30 29 29 30 31 31 31 30 23 19 16 10 5 3 3 4 4 2 1 0 0 0 0 0 0 0 0 0 0 0 0 0
0 0 0 0 0 0 1 5 9 9 8 11 15 16 19 23 25 27 27 25 24 24 22 24 27 26 22 16 9 5 4 4 6 8 7 3 0 0 0 0 0 0 0 0 0 0 0 0 0
0 0 0 0 0 0 0 2 5 5 5 9 12 13 17 20 21 24 25 23 22 23 22 24 30 32 26 18 11 6 4 4 6 10 11 6 2 1 0 0 1 1 0 0 0 0 0 0 0
0 0 0 0 0 0 0 1 2 2 3 7 9 11 16 21 21 21 21 21 23 25 26 30 36 38 31 22 17 12 7 5 7 11 11 6 3 4 4 4 3 3 1 0 0 0 0 0 0
0 0 0 1 0 0 0 0 0 1 1 3 6 9 12 18 21 20 19 19 23 28 31 36 42 42 35 28 25 20 12 7 7 8 6 4 2 8 14 14 9 5 2 1 0 0 0 0 0
0 0 0 0 0 0 0 0 0 0 0 0 3 6 7 11 18 21 19 20 23 28 33 40 45 45 39 33 31 28 20 10 6 5 4 2 1 10 23 24 15 8 3 1 0 0 0 0 0
0 0 0 0 0 0 0 0 0 0 0 0 1 2 4 7 14 20 22 23 25 30 37 45 51 51 43 35 31 31 26 16 8 7 5 2 1 10 24 26 17 10 5 2 0 0 0 0 0
0 0 0 0 0 0 0 0 1 1 0 0 0 2 4 7 12 19 23 27 31 35 43 52 57 56 46 35 29 30 30 23 14 11 8 5 5 14 25 27 20 13 9 6 4 1 0 1 1
0 0 0 0 0 0 0 0 0 1 1 0 0 2 4 6 8 13 21 29 34 39 47 54 57 55 46 35 31 32 33 30 24 20 18 16 18 26 34 33 26 18 13 12 10 5 2 3 4
0 0 0 0 0 0 0 0 0 0 1 0 0 1 3 4 5 9 19 30 35 40 48 54 54 51 43 36 35 37 37 36 32 29 27 27 30 37 43 40 31 21 15 15 15 10 4 5 6
Wind_Speed
11 13 11 9 7 7 7 9 6 10 9 10 7 6 8 11 8 8 11 19 24 22 19 17 16 15 14 14 13 13 13 13 12 12 11 11 11 11 11 11 10 10 10 10 10 10 9 9 9
12 15 12 9 9 9 5 2 7 11 10 7 5 4 8 11 12 12 14 20 23 21 18 16 17 15 14 13 13 13 13 12 12 11 11 10 10 10 10 10 10 10 9 9 9 9 9 9 8
14 18 10 9 12 12 5 5 7 8 7 3 3 4 7 8 10 11 16 21 21 19 17 18 17 16 15 14 13 13 12 12 11 11 10 10 9 9 9 9 9 9 9 9 9 9 9 8 8
10 10 8 9 12 9 7 7 7 4 5 3 2 6 9 7 8 13 17 20 21 19 18 17 17 16 15 14 13 13 12 11 11 10 9 9 9 8 8 8 8 8 8 8 7 7 7 7 7
11 9 10 12 14 7 6 7 5 4 1 4 4 8 9 7 11 15 16 19 20 19 18 17 16 16 14 14 13 12 12 11 10 9 9 8 8 8 7 7 7 7 6 6 6 6 6 6 5
9 10 11 11 7 5 5 6 4 3 2 4 4 6 7 7 11 14 16 17 18 20 19 16 16 15 14 13 13 12 11 10 9 9 8 7 7 7 6 6 6 5 5 4 4 4 4 4 4
11 12 13 11 5 5 5 5 4 5 3 4 4 5 6 7 9 12 14 15 17 19 18 15 14 13 13 13 12 12 11 10 9 8 7 7 6 6 6 5 5 4 4 3 3 3 3 3 2
10 11 13 8 5 5 6 4 4 3 4 4 3 5 7 8 10 12 13 14 15 16 17 14 14 13 12 11 12 12 11 10 9 8 7 6 6 7 7 7 6 5 4 3 3 2 2 2 1
10 9 8 8 7 6 6 5 2 2 3 4 7 9 12 12 13 13 12 13 13 14 14 15 14 12 12 12 12 12 11 9 9 8 7 6 4 5 6 6 9 7 5 4 4 3 3 3 4
8 7 6 7 7 7 7 5 4 2 2 6 10 13 15 13 13 15 15 15 14 13 11 10 13 11 10 10 10 7 8 7 5 4 4 3 1 1 3 8 9 7 7 6 6 5 5 5 4
7 7 7 6 6 6 7 6 3 4 2 5 10 13 15 14 13 13 14 15 15 14 11 11 10 8 8 7 6 4 3 4 3 3 1 1 1 1 2 2 4 4 6 4 5 5 3 2 1
7 8 7 6 5 5 6 6 4 3 5 7 10 12 12 12 12 11 11 13 14 13 11 11 10 7 6 6 5 4 3 3 3 3 2 2 1 2 2 1 1 0 1 2 2 2 2 1 1
10 9 7 5 5 4 5 5 4 2 6 9 10 11 12 12 10 8 7 8 11 12 10 10 10 8 6 4 2 4 4 4 4 3 3 2 2 3 2 2 1 1 0 2 1 1 1 1 2
11 10 8 8 9 5 4 3 1 3 5 6 9 9 10 10 10 7 7 6 9 12 11 10 10 9 7 4 3 3 4 3 5 4 4 3 3 3 2 1 1 1 1 2 0 1 1 1 1
12 11 8 8 11 5 4 4 1 4 4 5 6 7 7 7 8 7 8 7 9 12 11 10 10 9 7 5 4 4 3 4 5 4 4 4 4 2 2 1 1 2 0 1 1 1 1 2 3
13 10 10 10 9 4 4 2 4 5 4 6 6 7 6 5 6 7 8 8 8 10 10 9 10 10 7 4 2 2 3 5 4 4 4 4 3 2 2 2 3 2 1 1 1 1 0 0 1
12 11 10 3 4 5 5 0 6 7 6 7 7 7 8 6 6 7 8 9 9 9 10 7 8 9 7 6 3 3 4 4 4 4 4 3 3 2 2 3 2 3 1 2 3 3 3 2 1
11 11 10 6 5 6 6 1 7 7 6 7 8 7 7 7 7 9 9 9 10 9 9 8 9 7 7 5 3 3 4 3 3 5 4 3 3 3 3 3 2 3 3 3 3 2 1 1 2
12 14 13 9 7 6 7 1 6 4 5 8 8 9 8 7 9 9 9 10 11 10 9 8 9 8 6 4 4 4 4 3 4 5 5 4 3 3 2 3 1 2 4 4 4 3 1 1 1
13 14 12 9 7 7 6 1 6 5 3 6 9 9 10 10 10 10 10 9 11 10 10 9 9 8 6 4 3 3 3 3 3 4 4 4 3 2 2 2 1 3 2 3 2 2 3 1 2
13 11 11 11 12 9 7 2 5 6 6 7 9 10 11 12 13 12 11 10 11 11 11 10 9 9 7 6 4 3 3 2 4 5 4 4 3 2 3 2 2 2 1 3 1 3 2 3 1
13 11 13 14 12 8 7 2 4 5 7 9 10 10 11 12 12 12 12 12 12 11 10 9 9 9 7 6 5 6 5 4 4 4 5 4 3 3 3 2 2 2 2 2 0 3 3 1 2
13 14 14 12 9 9 10 5 4 5 6 8 10 11 12 12 13 13 13 13 12 13 11 10 9 8 7 6 5 5 4 3 3 4 6 5 5 4 3 4 3 1 1 3 3 2 3 2 3
12 14 12 6 4 4 10 7 3 5 7 10 11 11 12 13 13 13 12 11 11 12 12 11 10 8 8 7 6 6 4 3 4 4 6 5 5 5 5 4 3 2 2 3 2 1 1 2 3
10 11 9 6 0 5 9 4 3 5 7 10 12 12 12 13 13 13 13 12 12 13 12 12 11 9 9 9 7 7 5 4 4 4 5 5 4 5 7 6 5 3 2 2 2 2 0 1 1
10 11 9 10 9 4 1 1 3 6 8 10 13 13 13 13 13 14 13 12 12 13 13 13 13 11 10 10 8 7 7 5 4 6 4 5 3 4 8 6 6 5 4 4 4 3 3 2 2
11 9 9 10 12 7 1 1 3 4 7 9 12 13 13 13 13 14 13 13 12 13 13 13 13 12 11 11 9 8 7 7 5 5 6 4 3 4 9 7 7 6 5 4 4 3 4 4 4
10 10 8 8 8 8 2 3 1 1 2 7 9 11 12 13 13 14 14 14 13 13 12 12 12 12 11 10 10 10 9 8 6 5 6 5 4 4 7 7 7 7 6 6 5 4 4 4 4
8 10 8 7 7 7 2 2 6 7 7 7 9 11 11 12 13 13 13 14 13 13 12 12 12 11 11 10 10 8 9 9 8 7 6 5 5 5 6 7 7 7 7 7 6 6 6 6 6
8 10 10 8 7 8 5 3 3 4 4 6 9 10 11 11 11 12 13 13 12 12 12 12 11 11 11 10 9 9 8 8 8 8 8 7 6 7 7 7 7 8 8 8 8 9 8 7 7
Wind_Direction
227 238 235 246 243 244 266 292 344 55 57 54 46 41 69 69 74 97 132 127 119 122 125 124 122 122 121 120 121 123 122 120 119 117 116 112 108 104 100 97 95 93 90 88 86 84 80 76 72
254 250 241 248 259 275 285 319 34 58 63 64 67 55 75 75 91 121 129 121 121 125 131 127 126 124 124 123 124 124 123 123 122 120 117 114 111 108 104 101 98 94 92 89 87 86 80 76 71
260 265 261 250 254 272 306 52 64 70 76 65 77 75 69 78 94 120 126 126 125 128 127 128 132 129 127 126 125 125 125 125 123 122 119 116 114 110 105 104 101 97 93 89 86 85 80 75 68
254 246 243 262 279 300 353 33 38 46 98 87 57 88 81 73 102 121 133 132 126 128 128 132 133 132 130 128 127 126 126 126 125 124 123 120 116 113 109 106 103 99 94 90 87 84 79 72 62
244 257 249 265 278 312 14 29 15 345 67 98 64 90 90 88 114 129 141 131 131 133 130 135 135 133 132 132 131 129 129 129 127 125 124 123 120 116 114 110 108 106 102 97 94 91 83 74 57
256 258 265 272 287 359 29 42 17 359 43 74 83 93 90 107 125 142 144 136 135 131 130 134 136 136 136 136 134 134 133 132 131 131 129 127 125 126 125 123 118 115 112 110 107 104 94 77 51
262 276 279 289 341 22 37 26 17 2 29 67 72 92 113 123 133 145 141 134 132 129 131 140 142 140 139 138 138 138 137 137 138 139 140 144 147 149 150 146 136 130 124 123 125 126 115 93 51
264 284 297 314 3 25 39 19 52 31 50 89 89 111 129 139 147 142 140 135 131 133 137 146 149 146 148 144 143 141 142 145 148 151 159 169 178 178 177 172 159 156 158 161 163 163 159 160 217
265 275 299 355 5 2 9 352 43 108 128 107 93 108 143 156 153 149 145 136 133 136 143 152 146 151 156 151 147 149 152 158 162 170 181 195 205 187 184 171 163 170 175 184 189 192 197 212 222
258 276 334 7 353 342 338 328 319 254 183 115 110 121 141 161 161 161 158 151 142 142 146 143 144 152 156 145 147 157 166 161 180 160 174 194 205 188 147 156 171 180 188 197 205 209 218 232 225
283 313 340 342 342 336 320 313 304 306 45 103 132 140 151 164 168 171 166 159 148 146 142 137 135 137 132 128 148 149 151 147 148 110 92 105 340 36 97 142 170 194 200 204 193 207 233 229 238
272 295 302 308 325 312 314 316 331 2 84 113 130 148 159 169 176 175 167 161 151 146 139 135 123 113 111 124 131 150 137 130 113 105 48 45 57 38 56 59 50 230 161 164 163 193 218 248 286
277 278 284 301 294 304 310 314 342 55 108 125 142 156 168 174 176 180 161 148 143 138 132 123 114 107 101 100 139 126 111 114 117 107 74 23 55 48 45 62 25 327 65 101 136 173 169 199 225
301 310 324 326 297 273 282 298 305 139 140 141 150 164 163 173 176 161 141 147 143 129 122 119 118 118 115 112 95 104 116 121 106 87 76 36 63 50 9 68 43 9 66 91 182 154 189 207 195
304 309 313 281 267 265 284 285 154 150 168 153 151 159 158 167 162 150 148 153 139 126 127 128 130 130 132 137 150 135 138 120 100 100 81 52 61 45 347 32 73 26 360 160 175 162 197 203 199
290 281 268 249 250 246 258 325 141 159 181 155 155 153 153 146 150 143 143 143 137 131 132 144 142 138 138 135 149 132 117 108 113 114 98 76 72 29 336 34 50 335 323 42 98 111 315 299 185
273 268 275 266 248 270 272 239 162 170 174 163 157 155 156 153 152 137 137 144 143 136 135 138 125 136 139 137 143 109 90 97 114 106 99 96 78 30 32 68 24 304 4 39 36 54 39 348 350
304 310 316 326 286 285 298 236 159 164 170 156 151 152 154 165 166 147 142 147 142 134 134 133 129 134 139 138 139 119 115 133 123 107 108 104 91 42 1 106 31 346 41 41 52 28 75 302 310
307 307 313 311 286 290 302 252 130 145 165 154 153 156 164 169 156 149 149 150 142 139 141 145 145 147 150 148 153 150 150 163 136 127 124 118 97 85 16 59 99 42 65 39 24 9 299 227 21
292 299 306 298 294 287 286 245 120 138 194 160 157 158 164 161 162 160 154 155 152 150 149 151 152 154 159 151 152 150 144 165 132 114 128 136 133 150 119 39 47 69 101 67 26 31 336 341 89
297 304 307 309 303 297 285 210 141 158 182 166 161 160 163 166 165 166 167 166 162 159 161 163 160 158 161 159 163 152 139 185 141 141 155 157 149 124 64 61 40 360 88 104 39 3 5 356 349
299 309 311 310 312 327 321 267 157 187 180 171 163 161 161 164 163 167 169 170 171 165 163 157 154 157 162 171 176 171 178 185 158 159 150 159 167 168 153 135 93 6 50 99 330 81 342 331 314
300 310 306 319 339 344 315 296 153 180 176 171 162 161 158 162 165 169 172 174 175 168 164 158 155 160 166 181 185 187 192 180 156 152 143 166 171 187 175 151 141 164 71 88 68 72 3 343 358
290 296 295 321 358 303 270 270 158 165 164 159 153 151 153 158 162 166 172 171 174 170 164 159 158 166 172 188 188 201 213 185 155 161 156 186 172 184 181 168 160 195 168 134 123 92 109 38 21
280 289 294 307 214 241 251 254 121 119 123 136 143 147 154 159 164 166 172 175 174 169 167 164 166 173 180 189 191 196 208 202 192 198 184 205 186 181 175 173 163 193 171 164 164 184 355 172 62
273 278 293 311 307 297 307 344 106 103 106 122 137 146 155 163 166 170 174 174 175 175 174 171 172 178 183 189 191 193 196 205 207 213 212 207 222 177 156 161 164 193 191 194 180 213 197 192 209
269 277 289 282 286 300 95 23 90 98 116 130 140 151 160 165 168 170 171 174 178 180 179 176 172 177 184 189 187 194 198 214 222 197 208 218 208 164 153 166 172 188 199 209 184 220 232 174 197
255 281 294 296 306 311 72 74 291 281 197 155 152 153 159 164 169 170 172 175 176 178 177 174 171 177 185 190 191 196 201 209 220 223 213 219 205 186 157 171 180 189 193 197 209 224 221 211 216
264 259 269 285 293 300 304 155 192 208 209 181 152 149 159 166 172 172 173 174 174 176 175 176 173 179 188 194 196 204 193 202 208 215 223 220 212 193 178 184 190 195 198 195 200 224 227 210 216
273 272 263 258 271 283 304 118 182 204 180 160 147 147 157 166 169 167 166 167 171 174 175 175 177 186 191 196 195 201 202 202 205 209 213 214 209 204 196 194 200 205 205 200 201 213 229 221 217